When you browse on this site, cookies collect data to enhance your experience and personalize the content and advertising you see.
Visit our Privacy Policy to learn more. By continuing to use the site, you agree to this use of cookies and data.
  • In Hungary
  • List of Countries
  • For 7 days
  • Water Temperature
  • Satellite Maps
  • Weather Map
  • News
  • Weather Widgets
  • user-avatar
    Login

    Hourly Weather Vizhomlya

    Today, 22 July, Monday

    Time Temperature Precipitation Wind Pressure Humidity
    00:00 +17°C° 0 mm 3 mps 742 mmHg 95%
    01:00 +17°C° 0 mm 3 mps 742 mmHg 95%
    02:00 +17°C° 0 mm 3 mps 742 mmHg 95%
    03:00 +16°C° 0 mm 3 mps 742 mmHg 95%
    04:00 +16°C° 0 mm 3 mps 742 mmHg 95%
    05:00 +14°C° 0 mm 3 mps 742 mmHg 95%
    06:00 +17°C° 0 mm 3 mps 742 mmHg 93%
    07:00 +18°C° 0 mm 4 mps 742 mmHg 90%
    08:00 +19°C° 0 mm 4 mps 742 mmHg 88%
    09:00 +21°C° 0.1 mm 4 mps 743 mmHg 83%
    10:00 +22°C° 0.1 mm 4 mps 743 mmHg 78%
    11:00 +23°C° 0.1 mm 5 mps 743 mmHg 73%
    12:00 +23°C° 0.5 mm 5 mps 743 mmHg 72%
    13:00 +23°C° 0.5 mm 5 mps 742 mmHg 71%
    14:00 +25°C° 0.5 mm 5 mps 742 mmHg 71%
    15:00 +25°C° 0.2 mm 4 mps 742 mmHg 69%
    16:00 +25°C° 0.2 mm 4 mps 742 mmHg 67%
    17:00 +25°C° 0.2 mm 4 mps 742 mmHg 65%
    18:00 +24°C° 0 mm 3 mps 742 mmHg 69%
    19:00 +21°C° 0 mm 2 mps 742 mmHg 73%
    20:00 +21°C° 0 mm 1 mps 742 mmHg 77%
    21:00 +20°C° 0.1 mm 1 mps 742 mmHg 80%
    22:00 +19°C° 0.1 mm 1 mps 742 mmHg 83%
    23:00 +19°C° 0.1 mm 1 mps 742 mmHg 86%

    Tomorrow, 23 July, Tuesday

    Time Temperature Precipitation Wind Pressure Humidity
    00:00 +17°C° 0 mm 2 mps 742 mmHg 87%
    01:00 +17°C° 0 mm 2 mps 742 mmHg 87%
    02:00 +17°C° 0 mm 2 mps 742 mmHg 88%
    03:00 +16°C° 0 mm 2 mps 742 mmHg 90%
    04:00 +16°C° 0 mm 2 mps 742 mmHg 91%
    05:00 +15°C° 0 mm 2 mps 742 mmHg 93%
    06:00 +16°C° 0 mm 2 mps 742 mmHg 89%
    07:00 +17°C° 0 mm 2 mps 742 mmHg 86%
    08:00 +18°C° 0 mm 2 mps 742 mmHg 82%
    09:00 +19°C° 0.1 mm 2 mps 742 mmHg 76%
    10:00 +20°C° 0.1 mm 2 mps 742 mmHg 71%
    11:00 +22°C° 0.1 mm 3 mps 742 mmHg 65%
    12:00 +22°C° 0.2 mm 3 mps 742 mmHg 64%
    13:00 +24°C° 0.2 mm 3 mps 742 mmHg 62%
    14:00 +23°C° 0.2 mm 4 mps 741 mmHg 60%
    15:00 +23°C° 0.3 mm 4 mps 741 mmHg 62%
    16:00 +23°C° 0.3 mm 4 mps 741 mmHg 64%
    17:00 +23°C° 0.3 mm 4 mps 741 mmHg 66%
    18:00 +21°C° 0.2 mm 3 mps 741 mmHg 72%
    19:00 +20°C° 0.2 mm 3 mps 741 mmHg 79%
    20:00 +18°C° 0.2 mm 2 mps 741 mmHg 85%
    21:00 +17°C° 0 mm 2 mps 741 mmHg 88%
    22:00 +16°C° 0 mm 3 mps 741 mmHg 91%
    23:00 +14°C° 0 mm 3 mps 742 mmHg 94%

    Day after tomorrow, 24 July, Wednesday

    Time Temperature Precipitation Wind Pressure Humidity
    00:00 +14°C° 0 mm 3 mps 741 mmHg 94%
    01:00 +14°C° 0 mm 2 mps 741 mmHg 95%
    02:00 +13°C° 0 mm 2 mps 741 mmHg 95%
    03:00 +13°C° 0 mm 2 mps 741 mmHg 96%
    04:00 +13°C° 0 mm 2 mps 741 mmHg 96%
    05:00 +13°C° 0 mm 2 mps 741 mmHg 96%
    06:00 +14°C° 0 mm 2 mps 741 mmHg 93%
    07:00 +16°C° 0 mm 2 mps 741 mmHg 89%
    08:00 +17°C° 0 mm 2 mps 741 mmHg 85%
    09:00 +19°C° 0 mm 2 mps 741 mmHg 80%
    10:00 +20°C° 0 mm 2 mps 741 mmHg 74%
    11:00 +21°C° 0 mm 2 mps 741 mmHg 69%
    12:00 +23°C° 0 mm 2 mps 741 mmHg 65%
    13:00 +24°C° 0 mm 2 mps 741 mmHg 62%
    14:00 +25°C° 0 mm 2 mps 741 mmHg 58%
    15:00 +25°C° 0 mm 2 mps 741 mmHg 59%
    16:00 +25°C° 0 mm 2 mps 741 mmHg 60%
    17:00 +25°C° 0 mm 3 mps 741 mmHg 61%
    18:00 +23°C° 0 mm 2 mps 741 mmHg 68%
    19:00 +21°C° 0 mm 2 mps 741 mmHg 74%
    20:00 +19°C° 0 mm 2 mps 741 mmHg 81%
    21:00 +19°C° 0 mm 1 mps 741 mmHg 84%
    22:00 +19°C° 0 mm 1 mps 741 mmHg 86%
    23:00 +18°C° 0 mm 1 mps 741 mmHg 88%

    25 July, Thursday

    Time Temperature Precipitation Wind Pressure Humidity
    00:00 +16°C° 0 mm 1 mps 741 mmHg 89%
    01:00 +16°C° 0 mm 1 mps 741 mmHg 91%
    02:00 +16°C° 0 mm 1 mps 741 mmHg 92%
    03:00 +16°C° 0 mm 1 mps 741 mmHg 92%
    04:00 +15°C° 0 mm 1 mps 741 mmHg 93%
    05:00 +15°C° 0 mm 1 mps 741 mmHg 94%
    06:00 +18°C° 0 mm 1 mps 742 mmHg 89%
    07:00 +19°C° 0 mm 1 mps 742 mmHg 85%
    08:00 +21°C° 0 mm 1 mps 742 mmHg 80%
    09:00 +21°C° 0 mm 2 mps 742 mmHg 74%
    10:00 +24°C° 0 mm 2 mps 742 mmHg 69%
    11:00 +25°C° 0 mm 2 mps 742 mmHg 63%
    12:00 +26°C° 0.1 mm 3 mps 742 mmHg 62%
    13:00 +26°C° 0.1 mm 3 mps 742 mmHg 61%
    14:00 +27°C° 0.1 mm 3 mps 741 mmHg 60%
    15:00 +27°C° 0.1 mm 4 mps 741 mmHg 60%
    16:00 +27°C° 0.1 mm 4 mps 741 mmHg 61%
    17:00 +27°C° 0.1 mm 4 mps 741 mmHg 62%
    18:00 +25°C° 0 mm 3 mps 741 mmHg 68%
    19:00 +22°C° 0 mm 3 mps 741 mmHg 74%
    20:00 +21°C° 0 mm 2 mps 741 mmHg 80%
    21:00 +20°C° 0 mm 2 mps 741 mmHg 83%
    22:00 +19°C° 0 mm 2 mps 741 mmHg 85%
    23:00 +18°C° 0 mm 2 mps 741 mmHg 88%

    26 July, Friday

    Time Temperature Precipitation Wind Pressure Humidity
    00:00 +17°C° 0 mm 2 mps 741 mmHg 88%
    01:00 +17°C° 0 mm 2 mps 741 mmHg 89%
    02:00 +17°C° 0 mm 2 mps 741 mmHg 90%
    03:00 +16°C° 0 mm 2 mps 741 mmHg 91%
    04:00 +16°C° 0 mm 2 mps 741 mmHg 93%
    05:00 +16°C° 0 mm 2 mps 741 mmHg 95%
    06:00 +17°C° 0 mm 2 mps 741 mmHg 91%
    07:00 +19°C° 0 mm 2 mps 741 mmHg 88%
    08:00 +20°C° 0 mm 2 mps 741 mmHg 85%
    09:00 +22°C° 0 mm 3 mps 741 mmHg 80%
    10:00 +24°C° 0 mm 3 mps 741 mmHg 76%
    11:00 +25°C° 0 mm 4 mps 741 mmHg 71%
    12:00 +26°C° 0 mm 4 mps 741 mmHg 69%
    13:00 +26°C° 0 mm 4 mps 741 mmHg 66%
    14:00 +27°C° 0 mm 3 mps 741 mmHg 64%
    15:00 +27°C° 0 mm 3 mps 740 mmHg 64%
    16:00 +27°C° 0 mm 3 mps 740 mmHg 64%
    17:00 +27°C° 0 mm 2 mps 740 mmHg 64%
    18:00 +25°C° 0 mm 2 mps 740 mmHg 70%
    19:00 +24°C° 0 mm 2 mps 740 mmHg 77%
    20:00 +23°C° 0 mm 2 mps 740 mmHg 83%
    21:00 +21°C° 0 mm 2 mps 740 mmHg 85%
    22:00 +20°C° 0 mm 2 mps 740 mmHg 87%
    23:00 +19°C° 0 mm 2 mps 740 mmHg 88%

    27 July, Saturday

    Time Temperature Precipitation Wind Pressure Humidity
    00:00 +19°C° 0 mm 2 mps 740 mmHg 89%
    01:00 +18°C° 0 mm 2 mps 739 mmHg 90%
    02:00 +17°C° 0 mm 2 mps 739 mmHg 90%
    03:00 +17°C° 0 mm 2 mps 739 mmHg 91%
    04:00 +17°C° 0 mm 2 mps 739 mmHg 92%
    05:00 +16°C° 0 mm 2 mps 739 mmHg 93%
    06:00 +18°C° 0 mm 2 mps 739 mmHg 88%
    07:00 +20°C° 0 mm 2 mps 739 mmHg 83%
    08:00 +23°C° 0 mm 2 mps 739 mmHg 78%
    09:00 +24°C° 0 mm 3 mps 739 mmHg 73%
    10:00 +26°C° 0 mm 3 mps 739 mmHg 67%
    11:00 +27°C° 0 mm 4 mps 739 mmHg 62%
    12:00 +28°C° 0 mm 4 mps 738 mmHg 60%
    13:00 +28°C° 0 mm 4 mps 738 mmHg 58%
    14:00 +29°C° 0 mm 4 mps 738 mmHg 57%
    15:00 +28°C° 0 mm 4 mps 737 mmHg 58%
    16:00 +28°C° 0 mm 4 mps 737 mmHg 59%
    17:00 +28°C° 0 mm 4 mps 737 mmHg 60%
    18:00 +26°C° 0 mm 4 mps 737 mmHg 66%
    19:00 +25°C° 0 mm 3 mps 736 mmHg 72%
    20:00 +22°C° 0 mm 3 mps 736 mmHg 78%
    21:00 +21°C° 0 mm 3 mps 736 mmHg 79%
    22:00 +20°C° 0 mm 3 mps 736 mmHg 80%
    23:00 +19°C° 0 mm 3 mps 736 mmHg 81%
    Show more